Time,TemperatureF,DewpointF,PressureIn,WindDirection,WindDirectionDegrees,WindSpeedMPH,WindSpeedGustMPH,Humidity,HourlyPrecipIn,Conditions,Clouds,dailyrainin,SoftwareType,DateUTC
2013-01-28 00:02:00,38.6,37.3,30.22,SSW,192,2.0,2.0,95,0.00,,,0.00,Wunderground v.1.15,2013-01-28 05:02:00,
2013-01-28 00:03:00,38.6,37.3,30.22,South,185,1.0,2.0,95,0.00,,,0.00,Wunderground v.1.15,2013-01-28 05:03:00,
2013-01-28 00:06:00,38.7,37.4,30.22,SSW,200,0.0,3.0,95,0.00,,,0.00,Wunderground v.1.15,2013-01-28 05:06:00,
2013-01-28 00:11:00,38.7,37.4,30.22,SSW,193,1.0,2.0,95,0.00,,,0.00,Wunderground v.1.15,2013-01-28 05:11:00,
2013-01-28 00:17:00,38.7,37.4,30.21,SSW,208,0.0,3.0,95,0.00,,,0.00,Wunderground v.1.15,2013-01-28 05:17:00,
2013-01-28 00:23:00,38.7,37.4,30.21,SSW,198,1.0,4.0,95,0.00,,,0.00,Wunderground v.1.15,2013-01-28 05:23:00,
2013-01-28 00:30:00,38.8,37.5,30.20,South,185,1.0,2.0,95,0.00,,,0.00,Wunderground v.1.15,2013-01-28 05:30:00,
2013-01-28 00:36:00,38.7,37.4,30.19,SSW,192,2.0,4.0,95,0.00,,,0.00,Wunderground v.1.15,2013-01-28 05:36:00,
2013-01-28 00:42:00,38.7,37.4,30.18,SSW,213,2.0,3.0,95,0.00,,,0.00,Wunderground v.1.15,2013-01-28 05:42:00,
2013-01-28 00:47:00,38.7,37.4,30.18,SSW,206,1.0,3.0,95,0.00,,,0.00,Wunderground v.1.15,2013-01-28 05:47:00,
2013-01-28 00:52:00,38.8,37.5,30.18,SSW,200,4.0,5.0,95,0.00,,,0.00,Wunderground v.1.15,2013-01-28 05:52:00,
2013-01-28 00:58:00,38.9,37.9,30.18,SSW,202,2.0,5.0,96,0.00,,,0.00,Wunderground v.1.15,2013-01-28 05:58:00,
2013-01-28 01:03:00,39.1,38.1,30.18,SSW,213,4.0,4.0,96,0.00,,,0.00,Wunderground v.1.15,2013-01-28 06:03:00,
2013-01-28 01:09:00,39.3,38.3,30.18,SSW,196,2.0,6.0,96,0.00,,,0.00,Wunderground v.1.15,2013-01-28 06:09:00,
2013-01-28 01:15:00,39.5,38.5,30.17,SSW,196,3.0,4.0,96,0.00,,,0.00,Wunderground v.1.15,2013-01-28 06:15:00,
2013-01-28 01:21:00,39.7,38.7,30.18,SSW,193,3.0,5.0,96,0.00,,,0.00,Wunderground v.1.15,2013-01-28 06:21:00,
2013-01-28 01:27:00,39.9,38.9,30.18,SSW,206,3.0,5.0,96,0.00,,,0.00,Wunderground v.1.15,2013-01-28 06:27:00,
2013-01-28 01:32:00,40.0,39.0,30.18,SSW,198,2.0,4.0,96,0.00,,,0.00,Wunderground v.1.15,2013-01-28 06:32:00,
2013-01-28 01:38:00,40.3,39.3,30.18,SSW,196,3.0,4.0,96,0.00,,,0.00,Wunderground v.1.15,2013-01-28 06:38:00,
2013-01-28 01:43:00,40.6,39.5,30.18,SSW,203,2.0,4.0,96,0.00,,,0.00,Wunderground v.1.15,2013-01-28 06:43:00,
2013-01-28 01:49:00,40.9,39.8,30.18,SSW,211,7.0,7.0,96,0.00,,,0.00,Wunderground v.1.15,2013-01-28 06:49:00,
2013-01-28 01:54:00,41.1,40.0,30.18,SSW,203,4.0,5.0,96,0.00,,,0.00,Wunderground v.1.15,2013-01-28 06:54:00,
2013-01-28 02:00:00,41.4,40.3,30.19,SSW,201,3.0,5.0,96,0.00,,,0.00,Wunderground v.1.15,2013-01-28 07:00:00,
2013-01-28 02:05:00,41.6,40.5,30.19,SSW,203,5.0,7.0,96,0.00,,,0.00,Wunderground v.1.15,2013-01-28 07:05:00,
2013-01-28 02:10:00,41.8,40.7,30.19,SSW,194,5.0,5.0,96,0.00,,,0.00,Wunderground v.1.15,2013-01-28 07:10:00,
2013-01-28 02:15:00,41.8,40.7,30.19,SSW,209,3.0,7.0,96,0.00,,,0.00,Wunderground v.1.15,2013-01-28 07:15:00,
2013-01-28 02:20:00,41.9,40.8,30.19,SSW,195,1.0,4.0,96,0.00,,,0.00,Wunderground v.1.15,2013-01-28 07:20:00,
2013-01-28 02:25:00,42.0,40.9,30.19,SSW,211,4.0,7.0,96,0.00,,,0.00,Wunderground v.1.15,2013-01-28 07:25:00,
2013-01-28 02:30:00,42.1,41.0,30.19,SSW,203,4.0,6.0,96,0.00,,,0.00,Wunderground v.1.15,2013-01-28 07:30:00,
2013-01-28 02:36:00,42.2,41.1,30.19,SSW,208,4.0,8.0,96,0.00,,,0.00,Wunderground v.1.15,2013-01-28 07:36:00,
2013-01-28 02:41:00,42.3,41.2,30.19,SSW,207,7.0,7.0,96,0.00,,,0.00,Wunderground v.1.15,2013-01-28 07:41:00,
2013-01-28 02:46:00,42.4,41.3,30.19,SW,222,6.0,8.0,96,0.00,,,0.00,Wunderground v.1.15,2013-01-28 07:46:00,
2013-01-28 02:51:00,42.5,41.4,30.19,SSW,202,3.0,5.0,96,0.00,,,0.00,Wunderground v.1.15,2013-01-28 07:51:00,
2013-01-28 02:56:00,42.5,41.4,30.19,SSW,196,2.0,8.0,96,0.00,,,0.00,Wunderground v.1.15,2013-01-28 07:56:00,
2013-01-28 03:01:00,42.5,41.4,30.19,SSW,208,2.0,5.0,96,0.00,,,0.00,Wunderground v.1.15,2013-01-28 08:01:00,
2013-01-28 03:06:00,42.5,41.2,30.19,SSW,207,2.0,5.0,95,0.00,,,0.00,Wunderground v.1.15,2013-01-28 08:06:00,
2013-01-28 03:11:00,42.6,41.3,30.18,SSW,202,6.0,7.0,95,0.00,,,0.00,Wunderground v.1.15,2013-01-28 08:11:00,
2013-01-28 03:16:00,42.7,41.4,30.18,SSW,205,5.0,7.0,95,0.00,,,0.00,Wunderground v.1.15,2013-01-28 08:16:00,
2013-01-28 03:21:00,42.7,41.4,30.18,SSW,194,5.0,6.0,95,0.00,,,0.00,Wunderground v.1.15,2013-01-28 08:21:00,
2013-01-28 03:26:00,42.8,41.5,30.18,SSW,201,4.0,6.0,95,0.00,,,0.00,Wunderground v.1.15,2013-01-28 08:26:00,
2013-01-28 03:31:00,42.9,41.6,30.18,SSW,198,4.0,7.0,95,0.00,,,0.00,Wunderground v.1.15,2013-01-28 08:31:00,
2013-01-28 03:36:00,43.0,41.7,30.18,SSW,192,3.0,7.0,95,0.00,,,0.00,Wunderground v.1.15,2013-01-28 08:36:00,
2013-01-28 03:41:00,43.1,41.8,30.17,SSW,205,3.0,7.0,95,0.00,,,0.00,Wunderground v.1.15,2013-01-28 08:41:00,
2013-01-28 03:46:00,43.1,41.8,30.16,SW,218,4.0,8.0,95,0.00,,,0.00,Wunderground v.1.15,2013-01-28 08:46:00,
2013-01-28 03:51:00,43.2,41.9,30.17,SW,226,4.0,8.0,95,0.00,,,0.00,Wunderground v.1.15,2013-01-28 08:51:00,
2013-01-28 03:56:00,43.2,41.9,30.17,SW,217,4.0,8.0,95,0.00,,,0.00,Wunderground v.1.15,2013-01-28 08:56:00,
2013-01-28 04:01:00,43.3,41.7,30.16,SSW,198,4.0,8.0,94,0.00,,,0.00,Wunderground v.1.15,2013-01-28 09:01:00,
2013-01-28 04:07:00,43.3,41.7,30.16,SSW,205,3.0,8.0,94,0.00,,,0.00,Wunderground v.1.15,2013-01-28 09:07:00,
2013-01-28 04:12:00,43.4,41.8,30.16,South,171,11.0,11.0,94,0.00,,,0.00,Wunderground v.1.15,2013-01-28 09:12:00,
2013-01-28 04:17:00,43.5,41.9,30.16,SW,219,4.0,11.0,94,0.00,,,0.00,Wunderground v.1.15,2013-01-28 09:17:00,
2013-01-28 04:22:00,43.5,41.9,30.16,SSW,198,4.0,7.0,94,0.00,,,0.00,Wunderground v.1.15,2013-01-28 09:22:00,
2013-01-28 04:27:00,43.6,41.7,30.16,SSW,203,6.0,11.0,93,0.00,,,0.00,Wunderground v.1.15,2013-01-28 09:27:00,
2013-01-28 04:32:00,43.7,41.8,30.16,South,190,6.0,8.0,93,0.00,,,0.00,Wunderground v.1.15,2013-01-28 09:32:00,
2013-01-28 04:37:00,43.8,41.9,30.15,SW,232,4.0,10.0,93,0.00,,,0.00,Wunderground v.1.15,2013-01-28 09:37:00,
2013-01-28 04:42:00,43.9,42.0,30.15,SW,215,3.0,8.0,93,0.00,,,0.00,Wunderground v.1.15,2013-01-28 09:42:00,
2013-01-28 04:47:00,43.9,41.7,30.15,South,188,6.0,8.0,92,0.00,,,0.00,Wunderground v.1.15,2013-01-28 09:47:00,
2013-01-28 04:52:00,44.0,41.8,30.15,SSW,209,3.0,7.0,92,0.00,,,0.00,Wunderground v.1.15,2013-01-28 09:52:00,
2013-01-28 04:57:00,44.0,41.8,30.15,SW,217,4.0,9.0,92,0.00,,,0.00,Wunderground v.1.15,2013-01-28 09:57:00,
2013-01-28 05:02:00,44.1,41.9,30.14,SSW,195,7.0,11.0,92,0.00,,,0.00,Wunderground v.1.15,2013-01-28 10:02:00,
2013-01-28 05:07:00,44.2,41.7,30.15,SW,225,7.0,11.0,91,0.00,,,0.00,Wunderground v.1.15,2013-01-28 10:07:00,
2013-01-28 05:13:00,44.4,41.9,30.15,SSW,204,7.0,10.0,91,0.00,,,0.00,Wunderground v.1.15,2013-01-28 10:13:00,
2013-01-28 05:18:00,44.5,41.7,30.14,SSW,206,5.0,10.0,90,0.00,,,0.00,Wunderground v.1.15,2013-01-28 10:18:00,
2013-01-28 05:23:00,44.5,41.7,30.14,SW,233,7.0,12.0,90,0.00,,,0.00,Wunderground v.1.15,2013-01-28 10:23:00,
2013-01-28 05:28:00,44.6,41.8,30.14,SSW,194,4.0,12.0,90,0.00,,,0.00,Wunderground v.1.15,2013-01-28 10:28:00,
2013-01-28 05:33:00,44.6,41.8,30.14,SSW,211,8.0,11.0,90,0.00,,,0.00,Wunderground v.1.15,2013-01-28 10:33:00,
2013-01-28 05:38:00,44.7,41.7,30.14,SSW,201,5.0,11.0,89,0.00,,,0.00,Wunderground v.1.15,2013-01-28 10:38:00,
2013-01-28 05:43:00,44.7,41.7,30.14,SW,225,10.0,10.0,89,0.00,,,0.00,Wunderground v.1.15,2013-01-28 10:43:00,
2013-01-28 05:48:00,44.7,41.7,30.14,South,186,6.0,10.0,89,0.00,,,0.00,Wunderground v.1.15,2013-01-28 10:48:00,
2013-01-28 05:53:00,44.8,41.5,30.13,SSW,213,8.0,9.0,88,0.00,,,0.00,Wunderground v.1.15,2013-01-28 10:53:00,
2013-01-28 05:58:00,45.0,41.7,30.13,SW,217,7.0,12.0,88,0.00,,,0.00,Wunderground v.1.15,2013-01-28 10:58:00,
2013-01-28 06:04:00,45.0,41.7,30.13,SSW,211,7.0,12.0,88,0.00,,,0.00,Wunderground v.1.15,2013-01-28 11:04:00,
2013-01-28 06:09:00,45.1,41.5,30.13,SW,217,6.0,12.0,87,0.00,,,0.00,Wunderground v.1.15,2013-01-28 11:09:00,
2013-01-28 06:14:00,45.1,41.5,30.13,SW,229,10.0,11.0,87,0.00,,,0.00,Wunderground v.1.15,2013-01-28 11:14:00,
2013-01-28 06:19:00,45.2,41.6,30.12,SW,219,5.0,14.0,87,0.00,,,0.00,Wunderground v.1.15,2013-01-28 11:19:00,
2013-01-28 06:24:00,45.1,41.5,30.12,SW,229,6.0,11.0,87,0.00,,,0.00,Wunderground v.1.15,2013-01-28 11:24:00,
2013-01-28 06:29:00,45.1,41.2,30.12,SW,221,11.0,13.0,86,0.00,,,0.00,Wunderground v.1.15,2013-01-28 11:29:00,
2013-01-28 06:34:00,45.0,41.1,30.12,SSW,198,5.0,16.0,86,0.00,,,0.00,Wunderground v.1.15,2013-01-28 11:34:00,
2013-01-28 06:39:00,44.9,41.0,30.12,SSW,198,8.0,16.0,86,0.00,,,0.00,Wunderground v.1.15,2013-01-28 11:39:00,
2013-01-28 06:44:00,44.9,41.0,30.12,SW,219,10.0,10.0,86,0.00,,,0.00,Wunderground v.1.15,2013-01-28 11:44:00,
2013-01-28 06:50:00,44.8,40.9,30.12,SW,218,3.0,7.0,86,0.00,,,0.00,Wunderground v.1.15,2013-01-28 11:50:00,
2013-01-28 06:55:00,44.8,40.9,30.12,SSW,206,5.0,10.0,86,0.00,,,0.00,Wunderground v.1.15,2013-01-28 11:55:00,
2013-01-28 07:01:00,44.9,40.7,30.12,SSE,163,9.0,9.0,85,0.00,,,0.00,Wunderground v.1.15,2013-01-28 12:01:00,
2013-01-28 07:06:00,44.9,40.7,30.12,SSW,192,8.0,12.0,85,0.00,,,0.00,Wunderground v.1.15,2013-01-28 12:06:00,
2013-01-28 07:11:00,44.9,40.7,30.12,SW,226,7.0,11.0,85,0.00,,,0.00,Wunderground v.1.15,2013-01-28 12:11:00,
2013-01-28 07:16:00,45.0,40.8,30.12,SSW,205,4.0,11.0,85,0.00,,,0.00,Wunderground v.1.15,2013-01-28 12:16:00,
2013-01-28 07:21:00,45.1,40.6,30.12,SW,215,6.0,11.0,84,0.00,,,0.00,Wunderground v.1.15,2013-01-28 12:21:00,
2013-01-28 07:26:00,45.2,40.7,30.12,SSW,208,5.0,11.0,84,0.00,,,0.00,Wunderground v.1.15,2013-01-28 12:26:00,
2013-01-28 07:31:00,45.1,40.6,30.12,SSW,209,5.0,7.0,84,0.00,,,0.00,Wunderground v.1.15,2013-01-28 12:31:00,
2013-01-28 07:36:00,45.2,40.7,30.12,South,188,7.0,13.0,84,0.00,,,0.00,Wunderground v.1.15,2013-01-28 12:36:00,
2013-01-28 07:41:00,45.5,40.9,30.12,SW,215,9.0,10.0,84,0.00,,,0.00,Wunderground v.1.15,2013-01-28 12:41:00,
2013-01-28 07:47:00,45.6,40.7,30.12,SW,221,9.0,10.0,83,0.00,,,0.00,Wunderground v.1.15,2013-01-28 12:47:00,
2013-01-28 07:52:00,45.6,40.7,30.12,SSW,205,5.0,9.0,83,0.00,,,0.00,Wunderground v.1.15,2013-01-28 12:52:00,
2013-01-28 07:58:00,45.8,40.9,30.11,SW,234,9.0,11.0,83,0.00,,,0.00,Wunderground v.1.15,2013-01-28 12:58:00,
2013-01-28 08:03:00,45.9,41.0,30.11,South,179,8.0,9.0,83,0.00,,,0.00,Wunderground v.1.15,2013-01-28 13:03:00,
2013-01-28 08:08:00,46.0,41.1,30.11,WSW,242,6.0,11.0,83,0.00,,,0.00,Wunderground v.1.15,2013-01-28 13:08:00,
2013-01-28 08:13:00,46.1,41.2,30.12,SW,219,7.0,11.0,83,0.00,,,0.00,Wunderground v.1.15,2013-01-28 13:13:00,
2013-01-28 08:18:00,46.2,41.3,30.11,SSW,209,4.0,12.0,83,0.00,,,0.00,Wunderground v.1.15,2013-01-28 13:18:00,
2013-01-28 08:23:00,46.3,41.1,30.11,SSW,198,6.0,11.0,82,0.00,,,0.00,Wunderground v.1.15,2013-01-28 13:23:00,
2013-01-28 08:28:00,46.6,41.4,30.11,South,188,4.0,11.0,82,0.00,,,0.00,Wunderground v.1.15,2013-01-28 13:28:00,
2013-01-28 08:33:00,46.8,41.6,30.11,SSW,207,5.0,8.0,82,0.00,,,0.00,Wunderground v.1.15,2013-01-28 13:33:00,
2013-01-28 08:38:00,46.9,41.7,30.11,SSW,209,6.0,13.0,82,0.00,,,0.00,Wunderground v.1.15,2013-01-28 13:38:00,
2013-01-28 08:43:00,47.0,41.8,30.11,SSW,211,8.0,17.0,82,0.00,,,0.00,Wunderground v.1.15,2013-01-28 13:43:00,
2013-01-28 08:48:00,47.4,42.2,30.11,SW,225,7.0,17.0,82,0.00,,,0.00,Wunderground v.1.15,2013-01-28 13:48:00,
2013-01-28 08:53:00,47.6,42.1,30.11,SSW,205,5.0,11.0,81,0.00,,,0.00,Wunderground v.1.15,2013-01-28 13:53:00,
2013-01-28 08:58:00,47.7,42.2,30.11,SW,220,12.0,12.0,81,0.00,,,0.00,Wunderground v.1.15,2013-01-28 13:58:00,
2013-01-28 09:03:00,47.8,42.3,30.11,SSW,205,4.0,9.0,81,0.00,,,0.00,Wunderground v.1.15,2013-01-28 14:03:00,
2013-01-28 09:08:00,47.9,42.3,30.11,SSW,211,6.0,15.0,81,0.00,,,0.00,Wunderground v.1.15,2013-01-28 14:08:00,
2013-01-28 09:13:00,48.0,42.8,30.11,SW,222,7.0,13.0,82,0.00,,,0.00,Wunderground v.1.15,2013-01-28 14:13:00,
2013-01-28 09:18:00,47.9,43.0,30.11,SW,225,7.0,13.0,83,0.00,,,0.01,Wunderground v.1.15,2013-01-28 14:18:00,
2013-01-28 09:24:00,47.4,43.1,30.11,SW,225,7.0,11.0,85,0.00,,,0.01,Wunderground v.1.15,2013-01-28 14:24:00,
2013-01-28 09:30:00,47.2,43.2,30.11,SSW,194,4.0,6.0,86,0.00,,,0.01,Wunderground v.1.15,2013-01-28 14:30:00,
2013-01-28 09:36:00,47.4,43.4,30.11,SW,221,5.0,12.0,86,0.00,,,0.01,Wunderground v.1.15,2013-01-28 14:36:00,
2013-01-28 09:41:00,47.5,43.8,30.12,West,265,5.0,6.0,87,0.00,,,0.01,Wunderground v.1.15,2013-01-28 14:41:00,
2013-01-28 09:46:00,47.4,44.0,30.11,SW,227,6.0,7.0,88,0.00,,,0.01,Wunderground v.1.15,2013-01-28 14:46:00,
2013-01-28 09:51:00,47.2,44.1,30.11,SW,214,3.0,6.0,89,0.00,,,0.02,Wunderground v.1.15,2013-01-28 14:51:00,
2013-01-28 09:56:00,47.0,44.2,30.11,SW,214,7.0,8.0,90,0.13,,,0.03,Wunderground v.1.15,2013-01-28 14:56:00,
2013-01-28 10:01:00,47.0,44.2,30.12,WSW,241,6.0,8.0,90,0.06,,,0.03,Wunderground v.1.15,2013-01-28 15:01:00,
2013-01-28 10:06:00,47.1,44.3,30.12,SW,228,4.0,9.0,90,0.05,,,0.04,Wunderground v.1.15,2013-01-28 15:06:00,
2013-01-28 10:11:00,47.1,44.6,30.12,West,272,3.0,5.0,91,0.05,,,0.04,Wunderground v.1.15,2013-01-28 15:11:00,
2013-01-28 10:16:00,47.1,44.6,30.12,WSW,239,5.0,7.0,91,0.05,,,0.04,Wunderground v.1.15,2013-01-28 15:16:00,
2013-01-28 10:22:00,47.4,44.9,30.12,SW,221,6.0,6.0,91,0.00,,,0.04,Wunderground v.1.15,2013-01-28 15:22:00,
2013-01-28 10:27:00,47.6,45.1,30.12,SW,223,4.0,8.0,91,0.00,,,0.04,Wunderground v.1.15,2013-01-28 15:27:00,
2013-01-28 10:32:00,47.7,45.2,30.13,SW,224,7.0,7.0,91,0.00,,,0.04,Wunderground v.1.15,2013-01-28 15:32:00,
2013-01-28 10:37:00,47.8,45.0,30.12,SSW,206,3.0,7.0,90,0.00,,,0.04,Wunderground v.1.15,2013-01-28 15:37:00,
2013-01-28 10:42:00,47.9,45.1,30.13,SSW,209,6.0,7.0,90,0.00,,,0.04,Wunderground v.1.15,2013-01-28 15:42:00,
2013-01-28 10:47:00,48.0,45.2,30.13,SW,229,2.0,7.0,90,0.00,,,0.04,Wunderground v.1.15,2013-01-28 15:47:00,
2013-01-28 10:52:00,48.0,45.2,30.13,SSW,205,5.0,9.0,90,0.00,,,0.04,Wunderground v.1.15,2013-01-28 15:52:00,
2013-01-28 10:58:00,48.0,45.5,30.13,SW,216,4.0,9.0,91,0.00,,,0.05,Wunderground v.1.15,2013-01-28 15:58:00,
2013-01-28 11:03:00,47.9,45.7,30.13,SSW,209,4.0,12.0,92,0.18,,,0.07,Wunderground v.1.15,2013-01-28 16:03:00,
2013-01-28 11:08:00,47.8,45.6,30.13,SSW,209,3.0,12.0,92,0.07,,,0.07,Wunderground v.1.15,2013-01-28 16:08:00,
2013-01-28 11:14:00,47.8,45.9,30.13,WSW,257,4.0,8.0,93,0.04,,,0.07,Wunderground v.1.15,2013-01-28 16:14:00,
2013-01-28 11:19:00,47.9,46.0,30.13,SW,222,6.0,8.0,93,0.00,,,0.07,Wunderground v.1.15,2013-01-28 16:19:00,
2013-01-28 11:24:00,47.9,46.0,30.13,SW,223,4.0,10.0,93,0.00,,,0.07,Wunderground v.1.15,2013-01-28 16:24:00,
2013-01-28 11:30:00,48.0,46.1,30.13,SW,219,4.0,5.0,93,0.00,,,0.07,Wunderground v.1.15,2013-01-28 16:30:00,
2013-01-28 11:35:00,48.1,46.2,30.13,SW,218,5.0,9.0,93,0.00,,,0.07,Wunderground v.1.15,2013-01-28 16:35:00,
2013-01-28 11:40:00,48.1,46.2,30.13,SW,215,2.0,5.0,93,0.00,,,0.07,Wunderground v.1.15,2013-01-28 16:40:00,
2013-01-28 11:45:00,48.2,46.3,30.13,SSW,206,6.0,7.0,93,0.00,,,0.07,Wunderground v.1.15,2013-01-28 16:45:00,
2013-01-28 11:50:00,48.3,46.7,30.13,SSW,207,2.0,5.0,94,0.00,,,0.07,Wunderground v.1.15,2013-01-28 16:50:00,
2013-01-28 11:55:00,48.4,46.8,30.13,SSW,200,3.0,14.0,94,0.00,,,0.07,Wunderground v.1.15,2013-01-28 16:55:00,
2013-01-28 12:00:00,48.5,46.9,30.12,SSW,209,6.0,6.0,94,0.00,,,0.07,Wunderground v.1.15,2013-01-28 17:00:00,
2013-01-28 12:05:00,48.6,47.0,30.13,SSW,210,4.0,8.0,94,0.00,,,0.07,Wunderground v.1.15,2013-01-28 17:05:00,
2013-01-28 12:11:00,48.7,47.1,30.12,SW,215,4.0,5.0,94,0.00,,,0.07,Wunderground v.1.15,2013-01-28 17:11:00,
2013-01-28 12:16:00,48.7,46.8,30.12,SSW,210,6.0,9.0,93,0.00,,,0.07,Wunderground v.1.15,2013-01-28 17:16:00,
2013-01-28 12:21:00,48.7,46.8,30.12,SSW,213,5.0,6.0,93,0.00,,,0.07,Wunderground v.1.15,2013-01-28 17:21:00,
2013-01-28 12:26:00,48.8,46.9,30.11,SSW,211,5.0,8.0,93,0.00,,,0.07,Wunderground v.1.15,2013-01-28 17:26:00,
2013-01-28 12:31:00,48.9,47.2,30.11,SW,223,6.0,9.0,94,0.00,,,0.07,Wunderground v.1.15,2013-01-28 17:31:00,
2013-01-28 12:36:00,49.0,47.1,30.12,SSW,211,2.0,9.0,93,0.00,,,0.07,Wunderground v.1.15,2013-01-28 17:36:00,
2013-01-28 12:41:00,49.0,47.1,30.11,SW,229,7.0,10.0,93,0.00,,,0.07,Wunderground v.1.15,2013-01-28 17:41:00,
2013-01-28 12:46:00,49.0,47.1,30.11,SW,236,3.0,10.0,93,0.00,,,0.08,Wunderground v.1.15,2013-01-28 17:46:00,
2013-01-28 12:51:00,49.0,47.3,30.10,SW,215,6.0,8.0,94,0.00,,,0.08,Wunderground v.1.15,2013-01-28 17:51:00,
2013-01-28 12:56:00,49.1,47.4,30.10,SW,223,7.0,11.0,94,0.00,,,0.08,Wunderground v.1.15,2013-01-28 17:56:00,
2013-01-28 13:01:00,49.2,47.5,30.10,SW,222,2.0,7.0,94,0.04,,,0.09,Wunderground v.1.15,2013-01-28 18:01:00,
2013-01-28 13:06:00,49.2,47.5,30.10,SSW,193,4.0,9.0,94,0.04,,,0.09,Wunderground v.1.15,2013-01-28 18:06:00,
2013-01-28 13:11:00,49.4,47.7,30.10,SW,215,4.0,9.0,94,0.04,,,0.09,Wunderground v.1.15,2013-01-28 18:11:00,
2013-01-28 13:16:00,49.4,47.7,30.10,SSW,211,5.0,9.0,94,0.00,,,0.09,Wunderground v.1.15,2013-01-28 18:16:00,
2013-01-28 13:21:00,49.4,47.7,30.10,SW,234,8.0,9.0,94,0.00,,,0.09,Wunderground v.1.15,2013-01-28 18:21:00,
2013-01-28 13:26:00,49.4,47.7,30.10,SSW,204,5.0,9.0,94,0.00,,,0.09,Wunderground v.1.15,2013-01-28 18:26:00,
2013-01-28 13:31:00,49.4,47.7,30.09,SSW,212,5.0,8.0,94,0.00,,,0.10,Wunderground v.1.15,2013-01-28 18:31:00,
2013-01-28 13:36:00,49.4,47.7,30.09,SW,215,5.0,9.0,94,0.00,,,0.10,Wunderground v.1.15,2013-01-28 18:36:00,
2013-01-28 13:41:00,49.4,48.0,30.09,SSW,209,5.0,10.0,95,0.07,,,0.11,Wunderground v.1.15,2013-01-28 18:41:00,
2013-01-28 13:46:00,49.4,48.0,30.08,SSW,196,2.0,10.0,95,0.07,,,0.11,Wunderground v.1.15,2013-01-28 18:46:00,
2013-01-28 13:51:00,49.5,48.1,30.08,SSW,196,5.0,8.0,95,0.04,,,0.11,Wunderground v.1.15,2013-01-28 18:51:00,
2013-01-28 13:56:00,49.5,48.1,30.08,SW,215,8.0,10.0,95,0.00,,,0.11,Wunderground v.1.15,2013-01-28 18:56:00,
2013-01-28 14:02:00,49.7,48.3,30.07,SSW,202,4.0,5.0,95,0.00,,,0.11,Wunderground v.1.15,2013-01-28 19:02:00,
2013-01-28 14:07:00,49.9,48.8,30.07,SW,222,4.0,10.0,96,0.00,,,0.11,Wunderground v.1.15,2013-01-28 19:07:00,
2013-01-28 14:12:00,50.0,48.9,30.07,SSW,202,12.0,12.0,96,0.00,,,0.11,Wunderground v.1.15,2013-01-28 19:12:00,
2013-01-28 14:17:00,50.0,48.9,30.07,SSW,200,4.0,12.0,96,0.00,,,0.11,Wunderground v.1.15,2013-01-28 19:17:00,
2013-01-28 14:22:00,50.0,48.9,30.07,SSW,204,3.0,7.0,96,0.00,,,0.11,Wunderground v.1.15,2013-01-28 19:22:00,
2013-01-28 14:27:00,50.1,49.0,30.07,SW,217,9.0,10.0,96,0.00,,,0.11,Wunderground v.1.15,2013-01-28 19:27:00,
2013-01-28 14:33:00,50.1,49.0,30.07,South,191,6.0,7.0,96,0.00,,,0.11,Wunderground v.1.15,2013-01-28 19:33:00,
2013-01-28 14:38:00,50.1,49.0,30.07,SSW,209,3.0,9.0,96,0.00,,,0.11,Wunderground v.1.15,2013-01-28 19:38:00,
2013-01-28 14:43:00,50.2,49.1,30.07,SW,236,2.0,7.0,96,0.00,,,0.11,Wunderground v.1.15,2013-01-28 19:43:00,
2013-01-28 14:48:00,50.2,49.1,30.07,SW,232,8.0,11.0,96,0.00,,,0.11,Wunderground v.1.15,2013-01-28 19:48:00,
2013-01-28 14:53:00,50.2,49.1,30.07,SW,226,3.0,9.0,96,0.00,,,0.11,Wunderground v.1.15,2013-01-28 19:53:00,
2013-01-28 14:58:00,50.3,49.2,30.07,SW,232,4.0,10.0,96,0.00,,,0.12,Wunderground v.1.15,2013-01-28 19:58:00,
2013-01-28 15:03:00,50.3,49.2,30.07,WSW,238,3.0,8.0,96,0.00,,,0.12,Wunderground v.1.15,2013-01-28 20:03:00,
2013-01-28 15:08:00,50.4,49.3,30.07,SSW,205,5.0,8.0,96,0.00,,,0.12,Wunderground v.1.15,2013-01-28 20:08:00,
2013-01-28 15:13:00,50.4,49.3,30.07,West,259,6.0,10.0,96,0.00,,,0.12,Wunderground v.1.15,2013-01-28 20:13:00,
2013-01-28 15:18:00,50.5,49.4,30.07,SW,214,5.0,10.0,96,0.00,,,0.12,Wunderground v.1.15,2013-01-28 20:18:00,
2013-01-28 15:23:00,50.6,49.5,30.06,SW,219,6.0,8.0,96,0.00,,,0.12,Wunderground v.1.15,2013-01-28 20:23:00,
2013-01-28 15:28:00,50.6,49.2,30.07,WSW,248,6.0,13.0,95,0.00,,,0.12,Wunderground v.1.15,2013-01-28 20:28:00,
2013-01-28 15:33:00,50.6,49.2,30.07,South,186,5.0,7.0,95,0.00,,,0.12,Wunderground v.1.15,2013-01-28 20:33:00,
2013-01-28 15:38:00,50.6,49.2,30.07,SW,215,4.0,10.0,95,0.00,,,0.12,Wunderground v.1.15,2013-01-28 20:38:00,
2013-01-28 15:43:00,50.6,49.2,30.07,WNW,298,3.0,7.0,95,0.00,,,0.12,Wunderground v.1.15,2013-01-28 20:43:00,
2013-01-28 15:49:00,50.6,49.2,30.07,SW,220,4.0,9.0,95,0.00,,,0.12,Wunderground v.1.15,2013-01-28 20:49:00,
2013-01-28 15:54:00,50.6,49.2,30.08,SW,232,2.0,5.0,95,0.00,,,0.12,Wunderground v.1.15,2013-01-28 20:54:00,
2013-01-28 15:59:00,50.6,49.2,30.08,WSW,242,5.0,7.0,95,0.00,,,0.12,Wunderground v.1.15,2013-01-28 20:59:00,
2013-01-28 16:04:00,50.7,49.3,30.08,SW,227,3.0,10.0,95,0.00,,,0.12,Wunderground v.1.15,2013-01-28 21:04:00,
2013-01-28 16:09:00,50.6,49.5,30.07,SSE,161,8.0,10.0,96,0.00,,,0.12,Wunderground v.1.15,2013-01-28 21:09:00,
2013-01-28 16:14:00,50.7,49.6,30.07,SSW,209,4.0,10.0,96,0.00,,,0.12,Wunderground v.1.15,2013-01-28 21:14:00,
2013-01-28 16:19:00,50.8,49.7,30.07,SW,226,4.0,11.0,96,0.00,,,0.12,Wunderground v.1.15,2013-01-28 21:19:00,
2013-01-28 16:24:00,50.9,49.8,30.07,South,189,5.0,9.0,96,0.00,,,0.12,Wunderground v.1.15,2013-01-28 21:24:00,
2013-01-28 16:29:00,50.9,49.8,30.07,South,184,6.0,9.0,96,0.00,,,0.12,Wunderground v.1.15,2013-01-28 21:29:00,
2013-01-28 16:34:00,50.9,49.8,30.07,SSW,208,1.0,7.0,96,0.00,,,0.12,Wunderground v.1.15,2013-01-28 21:34:00,
2013-01-28 16:39:00,50.9,49.8,30.07,SSW,202,2.0,8.0,96,0.00,,,0.12,Wunderground v.1.15,2013-01-28 21:39:00,
2013-01-28 16:44:00,50.8,49.7,30.07,SSW,202,3.0,9.0,96,0.00,,,0.12,Wunderground v.1.15,2013-01-28 21:44:00,
2013-01-28 16:50:00,50.7,49.6,30.08,SW,219,2.0,4.0,96,0.00,,,0.12,Wunderground v.1.15,2013-01-28 21:50:00,
2013-01-28 16:55:00,50.6,49.5,30.08,SSW,202,5.0,7.0,96,0.00,,,0.12,Wunderground v.1.15,2013-01-28 21:55:00,
2013-01-28 17:00:00,50.5,49.4,30.08,SSW,205,4.0,4.0,96,0.00,,,0.12,Wunderground v.1.15,2013-01-28 22:00:00,
2013-01-28 17:05:00,50.5,49.4,30.08,South,188,9.0,9.0,96,0.00,,,0.12,Wunderground v.1.15,2013-01-28 22:05:00,
2013-01-28 17:10:00,50.5,49.4,30.07,SW,227,2.0,4.0,96,0.00,,,0.12,Wunderground v.1.15,2013-01-28 22:10:00,
2013-01-28 17:16:00,50.6,49.5,30.07,SSW,203,3.0,7.0,96,0.00,,,0.12,Wunderground v.1.15,2013-01-28 22:16:00,
2013-01-28 17:21:00,50.5,49.4,30.08,SSW,203,3.0,4.0,96,0.00,,,0.12,Wunderground v.1.15,2013-01-28 22:21:00,
2013-01-28 17:26:00,50.5,49.4,30.08,SSW,206,5.0,6.0,96,0.00,,,0.12,Wunderground v.1.15,2013-01-28 22:26:00,
2013-01-28 17:31:00,50.6,49.5,30.08,SSW,194,4.0,7.0,96,0.00,,,0.12,Wunderground v.1.15,2013-01-28 22:31:00,
2013-01-28 17:36:00,50.6,49.5,30.08,SSW,213,3.0,7.0,96,0.00,,,0.12,Wunderground v.1.15,2013-01-28 22:36:00,
2013-01-28 17:42:00,50.6,49.5,30.08,SSW,193,4.0,7.0,96,0.00,,,0.12,Wunderground v.1.15,2013-01-28 22:42:00,
2013-01-28 17:47:00,50.6,49.5,30.08,South,179,4.0,7.0,96,0.00,,,0.12,Wunderground v.1.15,2013-01-28 22:47:00,
2013-01-28 17:52:00,50.6,49.5,30.08,SW,221,5.0,10.0,96,0.00,,,0.12,Wunderground v.1.15,2013-01-28 22:52:00,
2013-01-28 17:57:00,50.6,49.5,30.08,SW,217,2.0,10.0,96,0.00,,,0.12,Wunderground v.1.15,2013-01-28 22:57:00,
2013-01-28 18:02:00,50.7,49.6,30.08,SW,225,1.0,5.0,96,0.00,,,0.12,Wunderground v.1.15,2013-01-28 23:02:00,
2013-01-28 18:08:00,50.7,49.6,30.07,SSW,211,4.0,8.0,96,0.00,,,0.12,Wunderground v.1.15,2013-01-28 23:08:00,
2013-01-28 18:13:00,50.7,49.6,30.07,South,178,7.0,8.0,96,0.00,,,0.12,Wunderground v.1.15,2013-01-28 23:13:00,
2013-01-28 18:19:00,50.7,49.6,30.08,SW,229,2.0,8.0,96,0.00,,,0.12,Wunderground v.1.15,2013-01-28 23:19:00,
2013-01-28 18:24:00,50.6,49.5,30.08,West,263,0.0,7.0,96,0.00,,,0.12,Wunderground v.1.15,2013-01-28 23:24:00,
2013-01-28 18:29:00,50.7,49.6,30.08,SW,224,1.0,7.0,96,0.00,,,0.12,Wunderground v.1.15,2013-01-28 23:29:00,
2013-01-28 18:34:00,50.8,49.7,30.09,SSW,213,1.0,7.0,96,0.00,,,0.12,Wunderground v.1.15,2013-01-28 23:34:00,
2013-01-28 18:39:00,50.8,49.7,30.09,SSW,203,1.0,7.0,96,0.00,,,0.12,Wunderground v.1.15,2013-01-28 23:39:00,
2013-01-28 18:44:00,50.9,49.8,30.09,SW,218,4.0,7.0,96,0.00,,,0.12,Wunderground v.1.15,2013-01-28 23:44:00,
2013-01-28 18:49:00,51.0,49.9,30.09,SW,219,2.0,7.0,96,0.00,,,0.12,Wunderground v.1.15,2013-01-28 23:49:00,
2013-01-28 18:54:00,51.1,50.0,30.09,SW,221,3.0,6.0,96,0.00,,,0.12,Wunderground v.1.15,2013-01-28 23:54:00,
2013-01-28 18:59:00,51.0,49.9,30.09,SSW,207,2.0,6.0,96,0.00,,,0.12,Wunderground v.1.15,2013-01-28 23:59:00,
2013-01-28 19:04:00,51.0,49.9,30.10,SSW,209,3.0,5.0,96,0.00,,,0.12,Wunderground v.1.15,2013-01-29 00:04:00,
2013-01-28 19:09:00,51.1,50.0,30.10,SW,219,3.0,5.0,96,0.00,,,0.12,Wunderground v.1.15,2013-01-29 00:09:00,
2013-01-28 19:14:00,51.0,49.9,30.09,SSW,198,4.0,5.0,96,0.00,,,0.12,Wunderground v.1.15,2013-01-29 00:14:00,
2013-01-28 19:19:00,51.0,49.9,30.09,SSW,211,2.0,7.0,96,0.00,,,0.12,Wunderground v.1.15,2013-01-29 00:19:00,
2013-01-28 19:24:00,51.1,50.0,30.09,SW,219,2.0,6.0,96,0.00,,,0.12,Wunderground v.1.15,2013-01-29 00:24:00,
2013-01-28 19:29:00,51.1,50.0,30.09,SW,218,3.0,7.0,96,0.00,,,0.12,Wunderground v.1.15,2013-01-29 00:29:00,
2013-01-28 19:34:00,51.2,50.1,30.09,SW,215,3.0,7.0,96,0.00,,,0.12,Wunderground v.1.15,2013-01-29 00:34:00,
2013-01-28 19:39:00,51.2,50.4,30.09,SW,226,5.0,9.0,97,0.00,,,0.12,Wunderground v.1.15,2013-01-29 00:39:00,
2013-01-28 19:44:00,51.3,50.5,30.09,SSW,205,5.0,7.0,97,0.00,,,0.12,Wunderground v.1.15,2013-01-29 00:44:00,
2013-01-28 19:49:00,51.3,50.5,30.09,SW,225,3.0,7.0,97,0.00,,,0.12,Wunderground v.1.15,2013-01-29 00:49:00,
2013-01-28 19:55:00,51.2,50.4,30.09,SSW,207,4.0,7.0,97,0.00,,,0.12,Wunderground v.1.15,2013-01-29 00:55:00,
2013-01-28 20:00:00,51.3,50.5,30.09,SW,214,4.0,5.0,97,0.00,,,0.12,Wunderground v.1.15,2013-01-29 01:00:00,
2013-01-28 20:06:00,51.2,50.4,30.10,SSW,204,3.0,7.0,97,0.00,,,0.12,Wunderground v.1.15,2013-01-29 01:06:00,
2013-01-28 20:11:00,51.3,50.5,30.09,SW,217,4.0,7.0,97,0.00,,,0.12,Wunderground v.1.15,2013-01-29 01:11:00,
2013-01-28 20:16:00,51.2,50.4,30.09,SSW,200,3.0,7.0,97,0.00,,,0.12,Wunderground v.1.15,2013-01-29 01:16:00,
2013-01-28 20:21:00,51.2,50.4,30.09,South,186,6.0,6.0,97,0.00,,,0.12,Wunderground v.1.15,2013-01-29 01:21:00,
2013-01-28 20:26:00,51.3,50.5,30.09,SW,218,3.0,8.0,97,0.00,,,0.12,Wunderground v.1.15,2013-01-29 01:26:00,
2013-01-28 20:31:00,51.4,50.6,30.09,SW,221,6.0,6.0,97,0.00,,,0.12,Wunderground v.1.15,2013-01-29 01:31:00,
2013-01-28 20:36:00,51.4,50.6,30.09,SW,231,5.0,6.0,97,0.00,,,0.12,Wunderground v.1.15,2013-01-29 01:36:00,
2013-01-28 20:42:00,51.5,50.7,30.09,SSW,196,6.0,7.0,97,0.00,,,0.12,Wunderground v.1.15,2013-01-29 01:42:00,
2013-01-28 20:47:00,51.6,50.8,30.09,SSW,202,3.0,9.0,97,0.00,,,0.12,Wunderground v.1.15,2013-01-29 01:47:00,
2013-01-28 20:52:00,51.6,50.8,30.09,SSW,206,6.0,6.0,97,0.00,,,0.12,Wunderground v.1.15,2013-01-29 01:52:00,
2013-01-28 20:57:00,51.6,50.8,30.08,SSW,200,3.0,6.0,97,0.00,,,0.12,Wunderground v.1.15,2013-01-29 01:57:00,
2013-01-28 21:02:00,51.6,50.8,30.08,SSW,210,4.0,5.0,97,0.00,,,0.12,Wunderground v.1.15,2013-01-29 02:02:00,
2013-01-28 21:07:00,51.6,50.8,30.08,South,188,3.0,6.0,97,0.00,,,0.12,Wunderground v.1.15,2013-01-29 02:07:00,
2013-01-28 21:12:00,51.5,50.7,30.08,SW,219,4.0,5.0,97,0.00,,,0.12,Wunderground v.1.15,2013-01-29 02:12:00,
2013-01-28 21:17:00,51.6,50.8,30.08,SSW,209,4.0,7.0,97,0.00,,,0.12,Wunderground v.1.15,2013-01-29 02:17:00,
2013-01-28 21:22:00,51.6,50.8,30.08,SW,217,2.0,7.0,97,0.00,,,0.12,Wunderground v.1.15,2013-01-29 02:22:00,
2013-01-28 21:28:00,51.5,50.7,30.08,SSW,202,4.0,7.0,97,0.00,,,0.12,Wunderground v.1.15,2013-01-29 02:28:00,
2013-01-28 21:33:00,51.5,50.7,30.08,SW,216,2.0,6.0,97,0.00,,,0.12,Wunderground v.1.15,2013-01-29 02:33:00,
2013-01-28 21:38:00,51.4,50.6,30.08,SSW,207,5.0,7.0,97,0.00,,,0.12,Wunderground v.1.15,2013-01-29 02:38:00,
2013-01-28 21:43:00,51.5,50.7,30.08,SSW,205,4.0,5.0,97,0.00,,,0.12,Wunderground v.1.15,2013-01-29 02:43:00,
2013-01-28 21:48:00,51.5,50.7,30.08,SSW,197,3.0,7.0,97,0.00,,,0.12,Wunderground v.1.15,2013-01-29 02:48:00,
2013-01-28 21:53:00,51.6,50.8,30.08,SSW,196,4.0,6.0,97,0.00,,,0.12,Wunderground v.1.15,2013-01-29 02:53:00,
2013-01-28 21:58:00,51.6,50.8,30.08,SW,217,2.0,6.0,97,0.00,,,0.12,Wunderground v.1.15,2013-01-29 02:58:00,
2013-01-28 22:03:00,51.6,50.8,30.08,SW,222,0.0,7.0,97,0.00,,,0.12,Wunderground v.1.15,2013-01-29 03:03:00,
2013-01-28 22:09:00,51.8,51.0,30.08,SSW,213,2.0,8.0,97,0.00,,,0.12,Wunderground v.1.15,2013-01-29 03:09:00,
2013-01-28 22:15:00,51.8,51.0,30.08,SW,227,2.0,6.0,97,0.00,,,0.12,Wunderground v.1.15,2013-01-29 03:15:00,
2013-01-28 22:20:00,51.9,51.1,30.08,SW,217,5.0,5.0,97,0.00,,,0.12,Wunderground v.1.15,2013-01-29 03:20:00,
2013-01-28 22:25:00,51.9,51.1,30.08,SSW,192,3.0,6.0,97,0.00,,,0.12,Wunderground v.1.15,2013-01-29 03:25:00,
2013-01-28 22:30:00,52.0,51.2,30.08,SSW,198,4.0,4.0,97,0.00,,,0.12,Wunderground v.1.15,2013-01-29 03:30:00,
2013-01-28 22:35:00,52.0,50.9,30.08,SSW,195,4.0,8.0,96,0.00,,,0.12,Wunderground v.1.15,2013-01-29 03:35:00,
2013-01-28 22:41:00,52.1,51.0,30.08,SW,225,2.0,4.0,96,0.00,,,0.12,Wunderground v.1.15,2013-01-29 03:41:00,
2013-01-28 22:46:00,52.1,51.0,30.08,SSW,208,3.0,6.0,96,0.00,,,0.12,Wunderground v.1.15,2013-01-29 03:46:00,
2013-01-28 22:51:00,52.1,51.0,30.08,SW,216,5.0,5.0,96,0.00,,,0.12,Wunderground v.1.15,2013-01-29 03:51:00,
2013-01-28 22:56:00,52.2,51.1,30.08,SSW,213,5.0,6.0,96,0.00,,,0.12,Wunderground v.1.15,2013-01-29 03:56:00,
2013-01-28 23:01:00,52.3,51.2,30.08,SW,214,3.0,4.0,96,0.00,,,0.12,Wunderground v.1.15,2013-01-29 04:01:00,
2013-01-28 23:07:00,52.4,51.3,30.08,SSW,192,5.0,7.0,96,0.00,,,0.12,Wunderground v.1.15,2013-01-29 04:07:00,
2013-01-28 23:12:00,52.4,51.3,30.08,SW,221,8.0,8.0,96,0.00,,,0.12,Wunderground v.1.15,2013-01-29 04:12:00,
2013-01-28 23:17:00,52.5,51.4,30.08,SW,217,6.0,8.0,96,0.00,,,0.12,Wunderground v.1.15,2013-01-29 04:17:00,
2013-01-28 23:22:00,52.5,51.1,30.07,SW,234,4.0,6.0,95,0.00,,,0.12,Wunderground v.1.15,2013-01-29 04:22:00,
2013-01-28 23:27:00,52.6,51.2,30.07,SSW,211,4.0,7.0,95,0.00,,,0.12,Wunderground v.1.15,2013-01-29 04:27:00,
2013-01-28 23:32:00,52.7,51.3,30.07,SW,215,3.0,6.0,95,0.00,,,0.12,Wunderground v.1.15,2013-01-29 04:32:00,
2013-01-28 23:37:00,52.7,51.3,30.07,SSW,201,2.0,6.0,95,0.00,,,0.12,Wunderground v.1.15,2013-01-29 04:37:00,
2013-01-28 23:42:00,52.7,51.3,30.07,SW,217,4.0,6.0,95,0.00,,,0.12,Wunderground v.1.15,2013-01-29 04:42:00,
2013-01-28 23:47:00,52.6,51.2,30.07,SSW,198,4.0,6.0,95,0.00,,,0.12,Wunderground v.1.15,2013-01-29 04:47:00,
2013-01-28 23:52:00,52.5,51.1,30.07,SSW,199,3.0,5.0,95,0.00,,,0.12,Wunderground v.1.15,2013-01-29 04:52:00,
2013-01-28 23:57:00,52.5,51.1,30.07,SW,217,3.0,6.0,95,0.00,,,0.12,Wunderground v.1.15,2013-01-29 04:57:00,